sat.trackr.live / text

‹ back to catalog

STARLINK-36075

NORAD 66905 · 2025-283AD

PAYLOAD ACTIVE UNKNOWN

§ Identity

Operator
Country
US
Launch date
2025-12-04
Launch site
AFWTR
Launch vehicle
Mass (kg)
RCS (m²)

Purposes: comms

External: N2YO · Heavens-Above · Gunter

§ Orbital elements

Epoch: 2026-05-25T01:45:14.855904Z

Period
94.11 min
Inclination
53.1612°
Eccentricity
0.0001072
Mean motion
15.30201298 rev/d
Perigee alt
474.5 km
Apogee alt
475.9 km
Semi-major
6,853.3 km
B*
1.0776e-3
RAAN
29.7370°
Arg perigee
78.7258°
Mean anomaly
281.3864°
Rev number
2,753

§ Raw data

STARLINK-360751 66905U 25283AD  26145.07308861  .00031694  00000+0  10776-2 0  99922 66905  53.1612  29.7370 0001072  78.7258 281.3864 15.30201298 27531

JSON: /api/v1/satellites/66905 · /tle

For live sub-satellite position, see the globe view (requires WebGL).

§ Visibility from observer

Set your observer location to see the next 7 days of passes ≥ 10°. The values pass through the URL so the page stays shareable.

No JS? Fill the form by hand. The geolocation button needs JavaScript.